SCP
1 1 1 0 0 0 0 0 0 0 0 0 0 0 0 0 0 0 0 1 1 1 1 1 1 1 1 1 1 1 2 2 1 1 1 1 1 1 1 1 1 1 1
1 1 0 0 0 0 0 0 0 0 0 0 0 0 0 0 0 0 0 1 1 1 1 1 1 2 2 1 1 1 2 2 1 1 1 1 1 1 1 1 1 1 1
1 1 0 0 0 0 0 0 0 0 0 1 1 0 0 0 0 0 0 0 1 1 1 1 1 2 2 2 1 1 2 2 2 1 1 1 1 1 1 1 1 1 1
1 1 0 0 0 0 0 0 0 0 1 1 1 1 0 1 1 0 0 0 1 1 1 1 2 2 2 2 2 2 2 2 2 1 1 1 1 1 1 1 1 1 1
1 1 1 0 0 0 0 0 0 0 0 1 1 1 1 1 1 1 0 0 0 1 1 1 2 2 2 2 2 2 2 2 2 2 1 1 1 1 1 1 1 1 1
1 1 1 1 0 0 0 1 1 0 0 1 1 1 1 1 1 0 0 0 0 0 1 1 2 1 1 1 1 2 2 2 2 2 1 1 1 1 1 1 1 1 1
1 1 1 1 0 0 0 0 0 0 0 1 1 1 1 1 1 0 0 0 0 0 1 1 1 1 1 1 1 1 2 2 2 2 1 1 1 1 1 1 1 1 1
1 1 1 1 1 1 0 0 0 0 0 1 1 1 1 1 1 1 0 0 0 0 1 1 1 1 0 0 1 1 1 1 1 2 1 1 1 1 1 1 1 1 1
1 1 1 1 1 1 1 0 1 1 1 1 1 1 1 1 1 1 1 0 0 0 0 0 0 0 0 0 1 1 1 1 1 1 1 1 1 1 1 1 1 1 1
2 2 1 1 1 1 1 1 1 1 1 1 1 1 1 1 1 1 1 0 0 0 0 0 0 0 0 1 1 1 1 1 1 1 1 1 1 1 1 1 1 1 1
3 2 1 1 1 1 1 1 1 1 1 2 2 2 2 1 1 1 1 0 0 0 0 0 0 0 1 1 1 1 1 1 1 1 1 1 1 1 1 1 1 1 1
2 2 1 1 1 1 1 1 1 1 2 2 2 2 2 2 2 1 1 1 0 0 0 0 0 1 1 1 1 1 1 1 0 0 1 1 1 1 1 1 1 1 1
1 1 2 2 2 2 1 1 1 2 2 2 2 2 2 2 2 2 2 1 1 1 0 0 1 1 1 1 1 1 1 1 0 0 0 1 1 1 1 1 1 1 1
2 2 2 2 2 2 2 2 2 2 2 3 2 2 2 2 2 2 2 1 1 1 0 0 1 1 1 1 1 1 1 1 0 0 0 0 1 1 1 1 1 1 1
3 3 3 3 3 2 2 2 2 2 3 3 2 2 2 2 2 2 2 2 1 1 0 0 0 1 1 1 1 1 1 1 0 0 0 0 0 0 0 0 1 1 1
4 4 4 4 3 3 3 3 3 3 3 3 2 2 2 3 2 2 2 1 1 1 1 1 1 0 0 0 0 1 1 1 1 0 0 0 0 0 0 0 1 1 1
4 4 4 4 3 3 3 3 3 3 3 3 3 2 2 2 2 2 2 2 1 1 1 1 1 1 0 0 0 1 1 1 1 0 0 0 0 0 0 0 0 0 0
3 3 4 3 3 3 3 3 3 3 3 3 3 2 2 2 2 2 2 2 2 1 1 1 1 1 1 1 1 1 1 1 1 1 0 0 0 0 0 0 0 0 0
3 3 3 3 3 3 3 3 2 2 2 2 2 1 2 2 2 2 2 2 2 2 1 1 1 1 1 1 1 1 1 1 1 1 0 0 0 0 0 0 0 0 0
3 4 4 3 3 3 3 2 2 2 2 2 1 1 1 2 2 2 2 2 2 2 2 2 1 1 1 1 1 1 1 1 1 1 1 0 0 0 0 0 0 0 0
4 4 4 4 4 3 2 2 2 2 2 2 1 1 1 1 2 2 2 2 2 2 2 2 2 1 1 1 1 1 1 1 1 1 1 1 1 1 1 0 0 0 0
5 5 5 5 4 3 2 2 2 2 2 2 2 1 1 1 1 1 1 2 2 2 2 2 2 2 1 1 1 1 1 1 1 1 1 0 0 1 1 0 0 0 0
7 7 7 6 5 3 2 1 2 2 2 2 2 2 2 1 1 1 1 1 1 2 2 2 2 2 2 1 1 1 1 1 1 1 1 0 0 0 0 0 0 0 0
10 8 7 5 4 2 1 1 1 2 2 2 2 3 2 1 1 1 1 1 1 1 1 1 2 2 1 1 1 1 1 1 1 1 1 1 0 0 0 0 0 0 0
10 9 6 4 3 2 1 1 1 1 1 1 2 2 2 1 1 1 1 1 1 1 1 1 1 1 1 1 1 1 1 1 1 1 1 1 1 0 0 0 0 0 0
10 8 5 3 2 1 1 1 1 1 1 1 1 1 1 1 1 0 1 1 1 1 1 1 1 0 0 0 1 1 1 1 1 1 1 1 1 0 0 0 0 0 0
Wind_Speed
0 0 1 1 1 1 1 1 1 1 2 2 2 2 2 2 2 2 2 6 6 7 8 8 9 9 9 9 9 8 8 8 8 8 7 8 8 8 8 8 8 8 8
1 0 1 1 1 1 1 1 1 1 1 1 2 2 2 2 3 3 3 4 5 6 6 7 8 8 9 9 9 8 8 8 8 8 7 7 8 8 9 9 8 8 8
1 0 0 1 1 1 1 1 1 1 1 1 1 2 2 2 3 3 3 2 2 5 6 7 7 7 8 8 9 10 10 9 9 8 8 8 8 7 8 8 9 9 8
1 1 1 1 1 0 0 0 0 0 1 1 1 1 1 2 3 3 2 2 2 2 4 7 7 7 7 8 8 9 10 10 9 9 9 9 8 8 7 8 9 9 8
0 1 1 1 1 0 0 1 0 0 0 1 1 1 1 1 2 2 2 2 2 2 2 4 6 6 7 8 8 9 9 9 9 9 9 9 9 8 8 8 8 8 8
0 0 0 1 1 1 1 0 0 0 0 1 1 1 1 1 1 1 2 1 1 2 2 2 2 4 6 7 7 8 8 9 9 9 9 9 9 8 8 8 8 8 8
0 0 0 1 1 0 1 1 0 0 0 0 1 1 1 1 0 1 1 1 1 1 1 2 2 2 3 5 6 7 8 8 7 7 8 8 9 8 8 7 7 8 8
1 1 1 0 0 0 1 1 0 0 0 1 1 1 1 2 2 1 1 0 1 1 1 1 2 2 2 2 4 7 8 7 7 7 8 8 8 8 8 7 7 7 8
1 1 1 1 1 1 1 1 0 1 1 0 1 1 1 1 2 2 1 1 1 1 2 2 2 3 3 2 3 5 7 8 8 8 8 8 8 8 8 8 8 8 8
1 1 1 1 1 1 1 1 1 1 2 1 0 0 1 2 1 2 2 1 2 2 2 2 2 2 2 2 3 5 6 7 8 8 8 7 7 8 8 9 9 9 9
1 1 1 1 1 1 1 1 1 1 2 2 1 1 1 0 1 1 2 2 2 2 2 2 2 2 3 3 3 4 5 5 6 7 7 7 6 6 8 9 9 9 9
1 1 1 1 1 1 2 2 2 2 2 2 1 1 1 1 1 2 2 2 3 3 2 2 2 2 3 3 4 5 4 4 5 6 6 6 6 6 7 8 9 9 9
1 2 1 1 1 1 2 1 1 2 2 2 2 2 2 2 2 2 2 2 2 2 2 2 2 2 2 2 3 5 5 4 4 5 6 6 6 6 6 7 7 7 8
2 2 1 1 1 1 1 1 0 1 1 2 2 2 2 2 2 2 2 2 2 2 2 3 2 2 2 3 4 5 4 4 4 4 4 6 6 6 6 6 6 6 6
2 1 1 1 1 1 1 0 1 1 1 1 2 2 2 2 2 2 2 2 2 2 2 2 2 2 2 3 3 3 3 4 4 4 4 5 5 5 6 6 6 6 6
2 1 1 1 1 1 1 1 1 1 1 1 1 2 2 2 2 2 2 2 2 3 3 2 2 3 3 3 3 3 4 5 5 4 5 5 5 5 5 6 6 6 6
2 2 2 2 2 1 1 1 1 1 1 1 1 1 2 2 2 2 1 2 2 2 3 3 2 2 3 3 3 3 3 3 3 4 4 4 4 4 4 5 6 6 6
3 3 3 2 2 2 1 2 2 2 2 2 2 1 2 1 2 1 1 2 2 3 3 3 3 2 2 3 3 3 2 2 2 3 3 4 4 4 4 4 5 6 6
3 3 3 3 3 3 2 3 3 3 3 2 2 2 2 1 2 2 2 2 2 2 3 3 3 2 2 2 2 3 3 2 3 2 3 3 3 4 4 4 5 5 6
3 3 3 3 3 3 3 3 3 3 3 3 2 2 2 2 3 3 2 3 2 2 2 3 3 2 2 2 2 2 3 2 3 3 3 3 3 4 4 4 4 4 5
3 3 3 3 3 2 3 3 3 3 3 3 2 2 3 3 4 3 3 3 3 2 2 2 3 3 3 2 2 2 3 3 3 2 2 2 2 2 3 3 4 4 5
2 2 3 3 3 3 3 4 3 3 2 3 3 3 3 4 4 4 5 5 5 4 4 3 3 4 4 3 3 2 2 3 3 1 2 3 2 3 3 2 4 5 5
3 3 3 3 3 4 4 3 3 2 2 2 3 3 3 3 3 3 4 4 5 6 6 5 5 5 4 3 3 4 3 4 4 2 2 4 2 3 3 3 5 6 6
3 3 3 3 3 4 4 3 3 2 2 3 3 3 3 4 3 3 3 4 4 4 5 5 5 6 5 4 5 5 4 4 4 2 2 3 2 3 3 3 5 6 6
3 3 3 3 3 4 4 3 2 2 2 3 3 3 3 4 5 4 3 4 4 4 4 5 5 5 6 5 4 2 3 3 4 3 2 2 2 2 3 3 3 5 6
3 3 3 3 3 3 4 3 3 2 2 3 3 3 5 5 5 4 3 4 5 5 4 4 4 5 4 4 5 4 4 4 3 3 2 2 2 1 2 2 2 2 3
Wind_Direction
230 289 316 317 309 311 262 249 240 238 222 215 214 211 220 231 238 239 241 240 242 233 228 228 222 223 222 220 220 221 223 219 218 218 220 219 222 221 221 219 217 219 219
214 271 325 315 310 298 253 236 250 246 245 228 230 225 227 232 235 239 244 241 241 241 238 231 227 229 227 223 224 227 229 228 226 224 227 227 229 227 227 224 220 219 220
239 229 257 299 302 307 280 237 266 239 237 231 232 233 227 228 231 234 238 239 239 239 238 234 232 234 230 227 228 229 227 226 227 228 228 228 231 232 233 227 223 221 221
223 210 241 282 292 335 317 238 243 236 253 261 264 263 253 241 236 231 226 223 227 236 236 233 231 235 236 234 232 232 230 228 226 228 230 229 228 228 231 230 226 223 221
252 209 259 290 313 338 300 271 352 160 247 283 273 260 252 243 239 232 225 232 232 231 236 240 235 236 241 243 240 238 235 231 229 228 229 228 227 225 226 227 225 222 220
243 174 260 318 358 19 3 31 102 114 195 246 263 292 285 269 233 228 231 239 243 234 229 236 242 248 248 249 247 246 244 238 232 230 232 229 228 227 227 227 223 219 216
249 168 292 348 358 347 298 291 253 114 30 108 87 358 342 336 317 260 248 250 286 268 234 220 235 250 263 257 253 252 250 246 237 230 230 228 227 222 220 221 216 215 215
274 236 226 248 281 325 330 318 276 180 142 100 118 93 353 342 335 318 308 284 308 302 270 249 244 252 263 267 263 257 249 244 241 234 230 227 224 221 217 210 209 214 214
261 249 229 222 222 197 251 291 179 169 172 110 128 146 152 254 303 312 298 301 306 292 277 264 258 261 259 256 264 262 252 243 243 240 235 230 226 221 218 215 215 218 221
280 265 249 240 232 227 236 245 168 167 165 200 208 210 196 185 203 303 308 289 282 276 272 276 271 263 263 262 260 260 260 250 245 242 236 233 231 222 217 213 217 221 224
305 283 266 261 235 228 227 235 218 175 179 196 197 199 204 226 205 217 282 302 301 272 262 259 262 269 268 267 263 271 260 253 250 244 237 237 238 233 223 219 221 222 223
302 306 302 295 253 236 224 206 214 188 192 192 200 200 196 202 208 209 247 276 286 281 272 259 260 265 262 262 269 282 272 261 258 247 240 239 238 239 235 227 226 226 225
289 295 314 301 287 268 243 217 198 203 195 187 207 221 217 223 213 204 224 262 277 286 287 266 252 265 272 266 268 277 274 272 266 256 246 243 242 243 243 236 232 232 230
252 268 262 267 279 282 277 260 228 237 197 200 216 215 221 235 225 213 209 222 274 291 279 277 281 268 279 274 276 274 275 275 263 263 259 250 244 243 242 237 233 234 230
237 241 249 253 267 263 273 290 269 259 232 233 231 226 232 245 236 229 217 208 214 270 283 288 296 299 294 270 284 274 273 281 268 259 256 259 254 247 240 237 231 226 224
236 232 251 247 257 260 249 234 259 255 233 252 245 236 245 246 240 234 219 207 200 216 257 273 272 291 299 297 296 278 272 284 272 261 253 250 253 248 240 235 230 223 222
228 223 229 232 237 244 246 232 249 243 243 268 270 248 260 250 242 237 221 211 208 203 242 276 264 284 292 305 316 299 279 272 278 271 258 248 248 247 243 237 231 225 224
233 228 225 227 234 238 227 224 237 237 232 251 265 252 259 248 254 247 230 227 225 213 219 261 278 282 277 294 303 302 304 294 281 282 266 257 250 249 247 242 238 230 226
239 238 225 226 234 239 237 235 229 232 234 239 237 233 242 224 258 255 242 239 238 230 216 238 271 275 277 294 303 305 309 301 295 293 278 263 255 253 251 245 240 233 229
233 233 228 227 231 237 240 242 236 238 241 245 235 229 233 228 238 244 242 240 241 243 233 241 262 276 275 284 284 298 308 307 298 301 298 284 271 261 259 249 240 231 224
234 226 228 235 237 234 239 239 235 237 238 245 248 247 249 252 255 246 242 234 228 235 239 243 254 264 270 275 282 281 284 297 284 270 286 282 273 266 256 245 234 229 221
236 231 235 241 247 252 256 243 232 230 233 240 257 264 265 265 275 267 252 238 227 226 233 237 248 253 262 259 262 264 272 287 286 263 270 278 262 264 264 251 240 231 225
233 235 243 242 248 258 260 253 239 218 226 242 251 262 274 281 284 274 270 266 255 249 238 226 241 250 254 251 252 260 253 255 263 274 254 271 263 264 266 259 241 234 230
233 239 245 248 251 261 260 251 240 220 229 245 249 249 258 280 279 273 269 273 269 265 256 242 236 247 250 247 235 243 254 264 268 259 229 261 268 266 280 266 246 236 229
245 243 244 246 250 267 267 252 234 223 245 262 262 260 261 269 276 271 258 268 279 281 271 261 255 257 261 259 247 235 242 254 272 264 218 242 267 282 280 268 252 235 230
246 248 253 252 249 262 267 259 235 230 258 275 275 269 266 266 268 255 240 249 263 270 279 286 279 280 272 268 254 232 230 240 259 263 212 219 245 271 284 269 266 262 251